Time,TemperatureF,DewpointF,PressureIn,WindDirection,WindDirectionDegrees,WindSpeedMPH,WindSpeedGustMPH,Humidity,HourlyPrecipIn,Conditions,Clouds,dailyrainin,SoftwareType,DateUTC
2013-03-22 00:00:00,37.4,33.8,29.83,SSW,203,2.5,3.4,87,0.00,,,0.00,WUHU216HW,2013-03-22 07:00:00,
2013-03-22 00:05:00,37.4,33.6,29.83,South,180,2.3,4.0,86,0.00,,,0.00,WUHU216HW,2013-03-22 07:05:00,
2013-03-22 00:10:00,37.4,33.6,29.83,South,188,2.1,4.0,86,0.00,,,0.00,WUHU216HW,2013-03-22 07:10:00,
2013-03-22 00:15:00,37.4,33.6,29.83,SSE,158,3.1,4.0,86,0.00,,,0.00,WUHU216HW,2013-03-22 07:15:00,
2013-03-22 00:20:00,37.3,33.4,29.83,SSE,160,2.1,3.1,86,0.00,,,0.00,WUHU216HW,2013-03-22 07:20:00,
2013-03-22 00:25:00,37.3,33.4,29.83,South,186,1.6,3.8,86,0.00,,,0.00,WUHU216HW,2013-03-22 07:25:00,
2013-03-22 00:30:00,37.1,33.2,29.83,South,180,3.1,3.8,86,0.00,,,0.00,WUHU216HW,2013-03-22 07:30:00,
2013-03-22 00:35:00,37.1,33.5,29.83,South,173,1.0,3.1,87,0.00,,,0.00,WUHU216HW,2013-03-22 07:35:00,
2013-03-22 00:40:00,36.9,33.3,29.83,South,187,1.9,2.9,87,0.00,,,0.00,WUHU216HW,2013-03-22 07:40:00,
2013-03-22 00:45:00,36.9,33.3,29.83,SSW,203,2.0,2.9,87,0.00,,,0.00,WUHU216HW,2013-03-22 07:45:00,
2013-03-22 00:50:00,36.9,33.3,29.83,South,177,1.2,2.5,87,0.00,,,0.00,WUHU216HW,2013-03-22 07:50:00,
2013-03-22 00:55:00,36.9,33.3,29.83,South,180,0.4,2.2,87,0.00,,,0.00,WUHU216HW,2013-03-22 07:55:00,
2013-03-22 01:00:00,36.7,33.1,29.83,South,180,0.9,2.2,87,0.00,,,0.00,WUHU216HW,2013-03-22 08:00:00,
2013-03-22 01:05:00,36.7,33.1,29.83,South,180,1.3,2.2,87,0.00,,,0.00,WUHU216HW,2013-03-22 08:05:00,
2013-03-22 01:10:00,36.7,33.1,29.83,South,180,1.8,2.5,87,0.00,,,0.00,WUHU216HW,2013-03-22 08:10:00,
2013-03-22 01:15:00,36.7,33.1,29.83,SSE,164,1.2,2.5,87,0.00,,,0.00,WUHU216HW,2013-03-22 08:15:00,
2013-03-22 01:20:00,36.7,33.1,29.83,SSE,158,1.6,2.5,87,0.00,,,0.00,WUHU216HW,2013-03-22 08:20:00,
2013-03-22 01:25:00,36.5,32.9,29.83,South,178,0.9,2.2,87,0.00,,,0.00,WUHU216HW,2013-03-22 08:25:00,
2013-03-22 01:30:00,36.4,32.8,29.83,SE,135,0.3,1.8,87,0.00,,,0.00,WUHU216HW,2013-03-22 08:30:00,
2013-03-22 01:35:00,36.5,32.9,29.83,SSE,158,1.3,1.3,87,0.00,,,0.00,WUHU216HW,2013-03-22 08:35:00,
2013-03-22 01:40:00,36.7,33.1,29.83,South,180,2.9,2.9,87,0.00,,,0.00,WUHU216HW,2013-03-22 08:40:00,
2013-03-22 01:45:00,36.7,33.1,29.83,SSW,203,1.8,2.9,87,0.00,,,0.00,WUHU216HW,2013-03-22 08:45:00,
2013-03-22 01:50:00,36.9,33.3,29.83,SSE,158,0.9,2.5,87,0.00,,,0.00,WUHU216HW,2013-03-22 08:50:00,
2013-03-22 01:55:00,36.9,33.3,29.84,South,180,0.7,1.8,87,0.00,,,0.00,WUHU216HW,2013-03-22 08:55:00,
2013-03-22 02:00:00,36.9,33.3,29.84,South,188,0.7,1.8,87,0.00,,,0.00,WUHU216HW,2013-03-22 09:00:00,
2013-03-22 02:05:00,36.9,33.3,29.84,South,180,2.0,4.0,87,0.00,,,0.00,WUHU216HW,2013-03-22 09:05:00,
2013-03-22 02:10:00,36.7,33.1,29.84,SSW,196,1.8,4.0,87,0.00,,,0.00,WUHU216HW,2013-03-22 09:10:00,
2013-03-22 02:15:00,36.7,33.1,29.85,SSE,158,1.8,3.4,87,0.00,,,0.00,WUHU216HW,2013-03-22 09:15:00,
2013-03-22 02:20:00,36.5,32.9,29.85,SSE,159,0.7,2.5,87,0.00,,,0.00,WUHU216HW,2013-03-22 09:20:00,
2013-03-22 02:25:00,36.5,32.9,29.85,South,180,1.1,2.0,87,0.00,,,0.00,WUHU216HW,2013-03-22 09:25:00,
2013-03-22 02:30:00,36.4,32.8,29.85,South,180,1.8,2.5,87,0.00,,,0.00,WUHU216HW,2013-03-22 09:30:00,
2013-03-22 02:35:00,36.4,32.8,29.85,SSW,203,2.5,2.5,87,0.00,,,0.00,WUHU216HW,2013-03-22 09:35:00,
2013-03-22 02:40:00,36.2,32.6,29.85,South,180,2.0,2.5,87,0.00,,,0.00,WUHU216HW,2013-03-22 09:40:00,
2013-03-22 02:45:00,36.2,32.6,29.85,SSE,158,3.1,3.1,87,0.00,,,0.00,WUHU216HW,2013-03-22 09:45:00,
2013-03-22 02:50:00,36.0,32.4,29.85,SSW,196,1.5,3.1,87,0.00,,,0.00,WUHU216HW,2013-03-22 09:50:00,
2013-03-22 02:55:00,36.0,32.4,29.85,South,179,2.4,3.1,87,0.00,,,0.00,WUHU216HW,2013-03-22 09:55:00,
2013-03-22 03:00:00,36.0,32.4,29.85,South,175,1.9,3.1,87,0.00,,,0.00,WUHU216HW,2013-03-22 10:00:00,
2013-03-22 03:05:00,36.2,32.6,29.85,South,180,1.8,3.4,87,0.00,,,0.00,WUHU216HW,2013-03-22 10:05:00,
2013-03-22 03:10:00,36.2,32.6,29.85,South,180,2.0,3.4,87,0.00,,,0.00,WUHU216HW,2013-03-22 10:10:00,
2013-03-22 03:15:00,36.2,32.6,29.85,SSE,158,1.6,2.9,87,0.00,,,0.00,WUHU216HW,2013-03-22 10:15:00,
2013-03-22 03:20:00,36.2,32.6,29.85,South,183,1.7,2.9,87,0.00,,,0.00,WUHU216HW,2013-03-22 10:20:00,
2013-03-22 03:25:00,36.4,32.8,29.85,South,180,2.9,4.0,87,0.00,,,0.00,WUHU216HW,2013-03-22 10:25:00,
2013-03-22 03:30:00,36.4,32.8,29.85,SSE,165,1.5,4.0,87,0.00,,,0.00,WUHU216HW,2013-03-22 10:30:00,
2013-03-22 03:35:00,36.5,32.9,29.85,South,170,2.5,3.8,87,0.00,,,0.00,WUHU216HW,2013-03-22 10:35:00,
2013-03-22 03:40:00,36.7,33.1,29.85,South,180,2.7,4.7,87,0.00,,,0.00,WUHU216HW,2013-03-22 10:40:00,
2013-03-22 03:45:00,36.7,33.1,29.85,South,180,3.6,4.7,87,0.00,,,0.00,WUHU216HW,2013-03-22 10:45:00,
2013-03-22 03:51:00,36.9,33.3,29.85,SSE,163,1.4,3.6,87,0.00,,,0.00,WUHU216HW,2013-03-22 10:51:00,
2013-03-22 03:56:00,36.9,33.3,29.85,SW,225,2.0,3.8,87,0.00,,,0.00,WUHU216HW,2013-03-22 10:56:00,
2013-03-22 04:01:00,36.9,33.3,29.86,South,186,0.6,3.8,87,0.00,,,0.00,WUHU216HW,2013-03-22 11:01:00,
2013-03-22 04:06:00,37.1,33.5,29.86,SSE,158,0.9,2.0,87,0.00,,,0.00,WUHU216HW,2013-03-22 11:06:00,
2013-03-22 04:11:00,37.1,33.2,29.86,South,190,1.3,2.5,86,0.00,,,0.00,WUHU216HW,2013-03-22 11:11:00,
2013-03-22 04:16:00,37.1,33.2,29.86,South,180,0.6,2.5,86,0.00,,,0.00,WUHU216HW,2013-03-22 11:16:00,
2013-03-22 04:21:00,37.1,33.2,29.86,South,180,1.1,2.2,86,0.00,,,0.00,WUHU216HW,2013-03-22 11:21:00,
2013-03-22 04:26:00,37.1,33.2,29.86,SSE,158,0.4,2.2,86,0.00,,,0.00,WUHU216HW,2013-03-22 11:26:00,
2013-03-22 04:31:00,37.3,33.4,29.86,South,180,2.7,2.7,86,0.00,,,0.00,WUHU216HW,2013-03-22 11:31:00,
2013-03-22 04:36:00,37.3,33.4,29.86,South,180,1.1,3.4,86,0.00,,,0.00,WUHU216HW,2013-03-22 11:36:00,
2013-03-22 04:41:00,37.4,33.6,29.86,SSE,158,0.6,3.4,86,0.00,,,0.00,WUHU216HW,2013-03-22 11:41:00,
2013-03-22 04:47:00,37.4,33.6,29.86,South,176,1.9,2.7,86,0.00,,,0.00,WUHU216HW,2013-03-22 11:47:00,
2013-03-22 04:52:00,37.4,33.6,29.86,South,180,0.7,2.7,86,0.00,,,0.00,WUHU216HW,2013-03-22 11:52:00,
2013-03-22 04:57:00,37.4,33.6,29.86,South,174,1.6,3.1,86,0.00,,,0.00,WUHU216HW,2013-03-22 11:57:00,
2013-03-22 05:02:00,37.4,33.3,29.86,South,180,1.3,3.1,85,0.00,,,0.00,WUHU216HW,2013-03-22 12:02:00,
2013-03-22 05:07:00,37.4,33.3,29.86,South,180,3.4,4.0,85,0.00,,,0.00,WUHU216HW,2013-03-22 12:07:00,
2013-03-22 05:12:00,37.4,33.6,29.86,South,180,1.6,4.3,86,0.00,,,0.00,WUHU216HW,2013-03-22 12:12:00,
2013-03-22 05:17:00,37.3,33.1,29.86,SSW,193,1.2,4.3,85,0.00,,,0.00,WUHU216HW,2013-03-22 12:17:00,
2013-03-22 05:22:00,37.4,33.6,29.86,SSW,203,2.2,3.8,86,0.00,,,0.00,WUHU216HW,2013-03-22 12:22:00,
2013-03-22 05:27:00,37.3,33.4,29.86,SSE,158,3.4,3.8,86,0.00,,,0.00,WUHU216HW,2013-03-22 12:27:00,
2013-03-22 05:32:00,37.3,33.1,29.86,South,180,4.0,4.0,85,0.00,,,0.00,WUHU216HW,2013-03-22 12:32:00,
2013-03-22 05:37:00,37.3,33.1,29.86,South,180,3.4,4.0,85,0.00,,,0.00,WUHU216HW,2013-03-22 12:37:00,
2013-03-22 05:42:00,37.1,32.9,29.86,SSE,158,3.4,4.9,85,0.00,,,0.00,WUHU216HW,2013-03-22 12:42:00,
2013-03-22 05:47:00,37.1,33.2,29.86,South,180,4.5,4.9,86,0.00,,,0.00,WUHU216HW,2013-03-22 12:47:00,
2013-03-22 05:52:00,37.1,33.2,29.86,South,180,3.6,4.9,86,0.00,,,0.00,WUHU216HW,2013-03-22 12:52:00,
2013-03-22 05:57:00,36.9,32.8,29.86,SSW,196,1.9,4.9,85,0.00,,,0.00,WUHU216HW,2013-03-22 12:57:00,
2013-03-22 06:02:00,37.1,32.9,29.86,South,180,2.5,4.9,85,0.00,,,0.00,WUHU216HW,2013-03-22 13:02:00,
2013-03-22 06:07:00,36.9,32.8,29.86,South,180,3.7,5.4,85,0.00,,,0.00,WUHU216HW,2013-03-22 13:07:00,
2013-03-22 06:12:00,36.9,32.8,29.86,SSW,203,2.9,5.4,85,0.00,,,0.00,WUHU216HW,2013-03-22 13:12:00,
2013-03-22 06:17:00,36.9,32.8,29.87,South,180,2.5,3.6,85,0.00,,,0.00,WUHU216HW,2013-03-22 13:17:00,
2013-03-22 06:22:00,36.9,32.8,29.87,South,176,2.2,4.7,85,0.00,,,0.00,WUHU216HW,2013-03-22 13:22:00,
2013-03-22 06:27:00,36.9,32.8,29.87,SSE,167,2.8,4.7,85,0.00,,,0.00,WUHU216HW,2013-03-22 13:27:00,
2013-03-22 06:32:00,36.7,32.6,29.87,SSE,165,1.3,4.5,85,0.00,,,0.00,WUHU216HW,2013-03-22 13:32:00,
2013-03-22 06:37:00,36.7,32.6,29.87,SSE,163,2.3,3.6,85,0.00,,,0.00,WUHU216HW,2013-03-22 13:37:00,
2013-03-22 06:42:00,36.5,32.4,29.87,South,169,1.5,5.4,85,0.00,,,0.00,WUHU216HW,2013-03-22 13:42:00,
2013-03-22 06:47:00,36.4,32.2,29.88,SSW,202,3.2,5.4,85,0.00,,,0.00,WUHU216HW,2013-03-22 13:47:00,
2013-03-22 06:52:00,36.4,32.2,29.88,South,174,2.6,5.4,85,0.00,,,0.00,WUHU216HW,2013-03-22 13:52:00,
2013-03-22 06:57:00,36.2,32.0,29.88,SSE,166,0.7,4.0,85,0.00,,,0.00,WUHU216HW,2013-03-22 13:57:00,
2013-03-22 07:02:00,36.2,32.0,29.88,SSE,158,0.0,3.8,85,0.00,,,0.00,WUHU216HW,2013-03-22 14:02:00,
2013-03-22 07:04:00,36.4,32.2,29.89,SSE,158,0.0,0.0,85,0.00,,,0.00,WUHU216HW,2013-03-22 14:04:00,
2013-03-22 07:07:00,36.4,32.2,29.89,SSE,158,0.0,0.0,85,0.00,,,0.00,WUHU216HW,2013-03-22 14:07:00,
2013-03-22 07:12:00,36.4,32.2,29.89,SSE,158,0.0,0.0,85,0.00,,,0.00,WUHU216HW,2013-03-22 14:12:00,
2013-03-22 08:00:00,37.8,33.4,29.89,ESE,113,0.0,0.0,84,0.00,,,0.00,WUHU216HW,2013-03-22 15:00:00,
2013-03-22 08:05:00,38.0,33.6,29.90,SSW,203,0.8,1.1,84,0.00,,,0.00,WUHU216HW,2013-03-22 15:05:00,
2013-03-22 08:07:00,38.2,33.8,29.90,SSE,158,1.3,1.3,84,0.00,,,0.00,WUHU216HW,2013-03-22 15:07:00,
2013-03-22 08:10:00,38.2,33.8,29.90,SSE,158,1.3,2.2,84,0.00,,,0.00,WUHU216HW,2013-03-22 15:10:00,
2013-03-22 08:15:00,38.2,33.8,29.90,SSE,158,1.3,2.2,84,0.00,,,0.00,WUHU216HW,2013-03-22 15:15:00,
2013-03-22 09:00:00,39.2,34.8,29.91,East,90,0.0,0.0,84,0.00,,,0.00,WUHU216HW,2013-03-22 16:00:00,
2013-03-22 09:05:00,39.2,34.8,29.91,East,90,0.0,0.0,84,0.00,,,0.00,WUHU216HW,2013-03-22 16:05:00,
2013-03-22 10:00:00,42.7,38.2,29.92,North,0,0.0,0.0,84,0.01,,,0.00,WUHU216HW,2013-03-22 17:00:00,
2013-03-22 10:05:00,42.7,38.2,29.92,North,0,0.0,0.0,84,0.01,,,0.00,WUHU216HW,2013-03-22 17:05:00,
2013-03-22 11:00:00,50.8,42.1,29.93,North,0,0.2,0.2,72,0.00,,,0.01,WUHU216HW,2013-03-22 18:00:00,
2013-03-22 11:05:00,50.8,42.1,29.93,North,0,0.2,0.2,72,0.00,,,0.01,WUHU216HW,2013-03-22 18:05:00,
2013-03-22 12:00:00,55.6,44.0,29.94,North,0,1.6,1.6,65,0.00,,,0.01,WUHU216HW,2013-03-22 19:00:00,
2013-03-22 12:05:00,55.6,44.0,29.94,North,0,1.6,1.6,65,0.00,,,0.01,WUHU216HW,2013-03-22 19:05:00,
2013-03-22 13:00:00,48.4,37.5,29.94,WNW,293,0.4,0.4,66,0.00,,,0.01,WUHU216HW,2013-03-22 20:00:00,
2013-03-22 13:05:00,48.4,37.5,29.94,WNW,293,0.4,0.4,66,0.00,,,0.01,WUHU216HW,2013-03-22 20:05:00,
2013-03-22 14:00:00,51.8,37.4,29.94,North,0,2.5,2.5,58,0.00,,,0.01,WUHU216HW,2013-03-22 21:00:00,
2013-03-22 14:05:00,51.8,37.4,29.94,North,0,2.5,2.5,58,0.00,,,0.01,WUHU216HW,2013-03-22 21:05:00,
2013-03-22 15:00:00,52.2,36.5,29.94,NNE,23,1.6,1.6,55,0.00,,,0.01,WUHU216HW,2013-03-22 22:00:00,
2013-03-22 15:05:00,52.2,36.5,29.94,NNE,23,1.6,1.6,55,0.00,,,0.01,WUHU216HW,2013-03-22 22:05:00,
2013-03-22 16:00:00,49.3,35.2,29.93,NNE,23,1.1,1.1,58,0.00,,,0.01,WUHU216HW,2013-03-22 23:00:00,
2013-03-22 16:05:00,49.3,35.2,29.93,NNE,23,1.1,1.1,58,0.00,,,0.01,WUHU216HW,2013-03-22 23:05:00,
2013-03-22 17:00:00,49.1,34.1,29.94,North,0,2.0,2.0,56,0.00,,,0.01,WUHU216HW,2013-03-23 00:00:00,
2013-03-22 17:05:00,49.1,34.1,29.94,North,0,2.0,2.0,56,0.00,,,0.01,WUHU216HW,2013-03-23 00:05:00,
2013-03-22 18:00:00,49.3,34.2,29.94,North,0,0.4,0.4,56,0.00,,,0.01,WUHU216HW,2013-03-23 01:00:00,
2013-03-22 18:05:00,49.3,34.2,29.94,North,0,0.4,0.4,56,0.00,,,0.01,WUHU216HW,2013-03-23 01:05:00,
2013-03-22 19:00:00,46.1,31.6,29.94,North,0,1.8,1.8,57,0.00,,,0.01,WUHU216HW,2013-03-23 02:00:00,
2013-03-22 19:05:00,46.1,31.6,29.94,North,0,1.8,1.8,57,0.00,,,0.01,WUHU216HW,2013-03-23 02:05:00,
2013-03-22 20:00:00,43.6,30.6,29.95,NNE,23,0.0,0.0,60,0.00,,,0.01,WUHU216HW,2013-03-23 03:00:00,
2013-03-22 20:05:00,43.6,30.6,29.95,NNE,23,0.0,0.0,60,0.00,,,0.01,WUHU216HW,2013-03-23 03:05:00,
2013-03-22 21:00:00,41.4,30.5,29.97,NNE,23,0.0,0.0,65,0.00,,,0.01,WUHU216HW,2013-03-23 04:00:00,
2013-03-22 21:05:00,41.4,30.5,29.97,NNE,23,0.0,0.0,65,0.00,,,0.01,WUHU216HW,2013-03-23 04:05:00,
2013-03-22 22:00:00,40.0,30.3,29.98,NNE,23,0.0,0.0,68,0.00,,,0.01,WUHU216HW,2013-03-23 05:00:00,
2013-03-22 22:05:00,40.0,30.3,29.98,NNE,23,0.0,0.0,68,0.00,,,0.01,WUHU216HW,2013-03-23 05:05:00,
2013-03-22 23:00:00,38.9,30.6,29.98,NE,45,0.0,0.0,72,0.00,,,0.01,WUHU216HW,2013-03-23 06:00:00,
2013-03-22 23:05:00,38.9,30.6,29.98,NE,45,0.0,0.0,72,0.00,,,0.01,WUHU216HW,2013-03-23 06:05:00,